This demonstration page uses our WeatherBlox Daily Observations layout. Learn more.

39.01783, -85.05884

Hourly Observations for August 9, 2019

Temp ( °F °C ) Dew Point ( °F °C ) Humidity (%) Winds ( mph kmh ) Pressure ( in mb ) Visibility ( mi km ) Precip ( " mm )
12:52 am 00:52 Clear 71 21.7 63 17.2 76 76 SW 3 6 29.85 1011 10 16.09344 0 0
1:52 am 01:52 Mostly Cloudy 71 21.7 63 17.2 76 76 WSW 5 7 29.85 1011 10 16.09344 0 0
2:52 am 02:52 Mostly Cloudy 71 21.7 64 17.8 79 79 WSW 6 9 29.85 1011 10 16.09344 0 0
3:52 am 03:52 Partly Cloudy 71 21.7 64 17.8 79 79 W 6 9 29.85 1011 10 16.09344 0 0
4:52 am 04:52 Partly Cloudy 69 20.6 64 17.8 84 84 Calm 29.85 1011 10 16.09344 0 0
5:52 am 05:52 Partly Cloudy 69 20.6 64 17.8 84 84 Calm 29.85 1011 10 16.09344 0 0
6:52 am 06:52 Partly Cloudy 68 20 64 17.8 87 87 W 5 7 29.88 1012 10 16.09344 0 0
7:52 am 07:52 Partly Cloudy 70 21.1 65 18.3 84 84 W 6 9 29.88 1012 10 16.09344 0 0
8:52 am 08:52 Partly Cloudy 73 22.8 65 18.3 76 76 N 8 13 29.91 1013 10 16.09344 0 0
9:52 am 09:52 Mostly Sunny 76 24.4 63 17.2 64 64 NE 7 11 29.91 1013 10 16.09344 0 0
10:52 am 10:52 Mostly Sunny 78 25.6 62 16.7 58 58 NNE 3 6 29.91 1013 10 16.09344 0 0
11:52 am 11:52 Mostly Sunny 80 26.7 62 16.7 54 54 NNE 3 6 29.91 1013 10 16.09344 0 0
12:52 pm 12:52 Mostly Sunny 83 28.3 63 17.2 51 51 NW 7 11 29.91 1013 10 16.09344 0 0
1:52 pm 13:52 Mostly Sunny 84 28.9 61 16.1 46 46 W 12 19 29.91 1013 10 16.09344 0 0
2:52 pm 14:52 Mostly Sunny 86 30 60 15.6 42 42 NNW 12 19 29.88 1012 10 16.09344 0 0
3:52 pm 15:52 Mostly Sunny 87 30.6 59 15 39 39 NW 10 17 29.88 1012 10 16.09344 0 0
4:52 pm 16:52 Mostly Sunny 88 31.1 57 13.9 35 35 NW 10 17 29.85 1011 10 16.09344 0 0
5:52 pm 17:52 Mostly Sunny 86 30 54 12.2 33 33 WNW 10 17 29.85 1011 10 16.09344 0 0
6:52 pm 18:52 Mostly Sunny 84 28.9 55 12.8 37 37 WNW 12 19 29.85 1011 10 16.09344 0 0
7:52 pm 19:52 Mostly Sunny 82 27.8 56 13.3 41 41 N 9 15 29.88 1012 10 16.09344 0 0
8:52 pm 20:52 Mostly Clear 77 25 57 13.9 50 50 N 8 13 29.88 1012 10 16.09344 0 0
9:52 pm 21:52 Mostly Clear 75 23.9 57 13.9 54 54 N 9 15 29.88 1012 10 16.09344 0 0
10:52 pm 22:52 Mostly Clear 74 23.3 56 13.3 54 54 N 7 11 29.91 1013 10 16.09344 0 0
11:52 pm 23:52 Clear 74 23.3 55 12.8 52 52 NNE 6 9 29.91 1013 10 16.09344 0 0

Powered by AerisWeather